CW5456 Hansville WA US current weather conditions

sailwx.info

Wind from 203 at 1 knots gusting 6

Air temperature 11.1° C
Dewpoint 8.7° C

Last reported at 2015-Mar-28 08:49 UTC.
Time now 2015-Mar-28 09:28 UTC

Location: N 47°55' W 122°35'.
View on Google Maps.

See reports from other nearby stations

  
Tides and Currents Weather Stations Pressure Air Temp Water Temp Dewpoint Dewpoint Depression Visibility Wind Speed Wind Dir Waves Ship Positions
date/time (UTC)wind fromknots sea level pressurealtimeterstation pressurevisibilityair tempwater tempwave heightnotes
2015-Mar-28 08:49 203 1 gusting 6 11.1
2015-Mar-28 08:44 193 11.1
2015-Mar-28 08:29 274 1 gusting 6 11.1
2015-Mar-28 08:24 315 11.1
2015-Mar-28 08:19 269 1 gusting 6 10.6
2015-Mar-28 08:14 169 0 gusting 6 10.6
2015-Mar-28 08:09 259 3 gusting 6 10.6
2015-Mar-28 07:39 252 11.1
2015-Mar-28 07:34 143 11.1
2015-Mar-28 07:29 131 1 gusting 6 11.1
2015-Mar-28 07:24 184 11.1
2015-Mar-28 06:59 244 5 gusting 17 11.1
2015-Mar-28 06:49 171 8 gusting 12 11.1
2015-Mar-28 06:44 226 7 gusting 9 11.1
2015-Mar-28 06:29 229 11.1
2015-Mar-28 06:24 133 3 gusting 14 11.1
2015-Mar-28 06:19 234 5 gusting 11 11.7
2015-Mar-28 06:09 168 7 gusting 9 11.7
2015-Mar-28 05:54 205 2 gusting 8 11.7
2015-Mar-28 05:49 170 2 gusting 8 11.7
2015-Mar-28 05:39 164 1 gusting 13 12.2
2015-Mar-28 05:19 179 1 gusting 12 12.2
2015-Mar-28 05:04 161 2 gusting 10 12.8
2015-Mar-28 04:59 162 3 gusting 6 12.8
2015-Mar-28 04:39 141 13.3
2015-Mar-28 04:34 215 6 gusting 7 13.3
2015-Mar-28 04:29 234 3 gusting 10 13.3
2015-Mar-28 04:09 279 1 gusting 17 13.9
2015-Mar-28 04:04 218 5 gusting 17 13.9
2015-Mar-28 03:59 179 10 gusting 16 13.9
2015-Mar-28 03:54 187 0 gusting 17 13.9
2015-Mar-28 03:44 281 7 gusting 22 13.9
2015-Mar-28 03:24 196 6 gusting 9 13.9
2015-Mar-28 03:14 186 1 gusting 13 13.9
2015-Mar-28 03:04 234 1 gusting 15 14.4
2015-Mar-28 02:59 200 10 gusting 15 14.4
2015-Mar-28 02:54 234 7 gusting 12 14.4
2015-Mar-28 02:44 198 8 gusting 15 15.0
2015-Mar-28 02:39 188 5 gusting 15 15.0
2015-Mar-28 02:09 230 5 gusting 14 15.6
2015-Mar-28 02:04 192 2 gusting 13 16.1
2015-Mar-28 01:54 179 2 gusting 14 16.1
2015-Mar-28 01:39 162 3 gusting 12 17.2
2015-Mar-28 01:34 196 8 gusting 16 17.2
2015-Mar-28 01:24 260 6 gusting 13 17.8
2015-Mar-28 01:19 186 5 gusting 13 17.8
2015-Mar-28 01:14 176 3 gusting 15 17.8
2015-Mar-28 01:09 054 1 gusting 19 17.8
2015-Mar-28 01:04 167 3 gusting 19 17.8
2015-Mar-28 00:59 199 12 gusting 12 17.8
2015-Mar-28 00:49 207 3 gusting 12 18.3
2015-Mar-28 00:44 180 9 gusting 12 18.3
2015-Mar-28 00:29 178 2 gusting 8 18.3
2015-Mar-28 00:14 227 6 gusting 12 18.9
2015-Mar-28 00:09 203 9 gusting 12 18.3
2015-Mar-27 23:59 214 2 gusting 11 18.3
2015-Mar-27 23:54 200 3 gusting 11 18.3
2015-Mar-27 23:49 211 6 gusting 10 18.9
2015-Mar-27 23:39 083 1 gusting 12 18.9
2015-Mar-27 23:34 017 2 gusting 12 19.4
2015-Mar-27 23:29 221 3 gusting 10 19.4
2015-Mar-27 23:19 117 6 gusting 10 19.4
2015-Mar-27 23:09 192 6 gusting 18 20.0
2015-Mar-27 23:04 175 7 gusting 14 20.0
2015-Mar-27 22:54 163 11 gusting 17 20.0
2015-Mar-27 22:49 238 7 gusting 10 20.0
2015-Mar-27 22:44 088 1 gusting 15 20.6
2015-Mar-27 22:39 355 3 gusting 15 20.6
2015-Mar-27 22:24 186 6 gusting 16 21.1
2015-Mar-27 21:59 173 1 gusting 18 21.1
2015-Mar-27 21:44 146 6 gusting 20 20.6
2015-Mar-27 21:39 256 9 gusting 16 20.0
2015-Mar-27 21:34 205 8 gusting 11 18.9
2015-Mar-27 21:29 183 1 gusting 12 17.2
2015-Mar-27 21:14 204 13.9
2015-Mar-27 21:09 346 1 gusting 3 13.3
2015-Mar-27 21:04 346 0 gusting 2 13.3
2015-Mar-27 20:49 346 13.3
2015-Mar-27 20:19 345 0 gusting 3 12.8
2015-Mar-27 20:14 345 0 gusting 3 12.8
2015-Mar-27 20:09 337 12.8
2015-Mar-27 20:04 337 0 gusting 2 12.8
2015-Mar-27 19:49 336 12.8
2015-Mar-27 19:44 325 12.8
2015-Mar-27 19:39 360 2 gusting 5 12.8
2015-Mar-27 19:34 360 0 gusting 5 12.8
2015-Mar-27 19:19 340 1 gusting 3 12.2
2015-Mar-27 19:14 340 0 gusting 3 12.2
2015-Mar-27 18:54 333 1 gusting 1 11.7
2015-Mar-27 18:49 333 0 gusting 1 11.7
2015-Mar-27 18:29 339 1 gusting 3 11.1
2015-Mar-27 18:24 339 2 gusting 2 11.1
2015-Mar-27 18:10 339 1 gusting 6 11.1
2015-Mar-27 18:04 346 5 gusting 6 11.1
2015-Mar-27 17:54 334 1 gusting 2 11.7
2015-Mar-27 17:34 338 0 gusting 3 10.6
2015-Mar-27 17:29 337 1 gusting 3 10.6
2015-Mar-27 17:24 338 1 gusting 3 11.1
2015-Mar-27 17:19 203 2 gusting 3 11.1
2015-Mar-27 16:59 177 2 gusting 6 10.6
2015-Mar-27 16:39 214 2 gusting 5 10.0
2015-Mar-27 16:34 212 1 gusting 5 10.0
2015-Mar-27 16:29 182 10.0
2015-Mar-27 16:24 182 0 gusting 3 10.0
2015-Mar-27 16:14 182 0 gusting 5 9.4
2015-Mar-27 16:09 182 1 gusting 5 9.4
2015-Mar-27 15:49 181 2 gusting 5 9.4
2015-Mar-27 15:34 182 3 gusting 6 9.4
2015-Mar-27 15:19 197 3 gusting 6 8.9
2015-Mar-27 15:09 198 3 gusting 6 8.9
2015-Mar-27 14:59 198 3 gusting 6 8.9
2015-Mar-27 14:54 183 6 gusting 6 8.9
2015-Mar-27 14:44 201 6 gusting 6 8.9
2015-Mar-27 14:29 209 3 gusting 7 8.3
2015-Mar-27 14:19 199 6 gusting 6 8.3
2015-Mar-27 14:14 192 5 gusting 6 8.3
2015-Mar-27 14:09 207 6 gusting 6 8.3
2015-Mar-27 14:04 210 6 gusting 6 8.3
2015-Mar-27 13:39 217 3 gusting 6 8.3
2015-Mar-27 13:34 207 5 gusting 5 8.3
2015-Mar-27 13:24 209 2 gusting 6 8.3
2015-Mar-27 13:19 201 2 gusting 5 8.3
2015-Mar-27 13:14 209 3 gusting 6 8.3
2015-Mar-27 13:09 208 3 gusting 6 8.3
2015-Mar-27 13:04 209 3 gusting 5 8.3
2015-Mar-27 12:54 198 2 gusting 6 8.3
2015-Mar-27 12:44 209 2 gusting 5 8.9
2015-Mar-27 12:14 213 1 gusting 3 8.9
2015-Mar-27 12:04 213 2 gusting 3 8.9
2015-Mar-27 11:49 213 3 gusting 5 8.9
2015-Mar-27 11:44 213 3 gusting 3 8.9
2015-Mar-27 11:39 213 2 gusting 3 8.9
2015-Mar-27 11:34 213 2 gusting 3 8.9
2015-Mar-27 11:29 213 3 gusting 3 8.9
2015-Mar-27 11:24 213 2 gusting 3 8.9
2015-Mar-27 11:09 213 3 gusting 5 8.9
2015-Mar-27 10:54 213 2 gusting 5 8.9
2015-Mar-27 10:49 213 3 gusting 5 8.9
2015-Mar-27 10:19 234 2 gusting 2 8.9
2015-Mar-27 09:49 338 0 gusting 1 9.4
2015-Mar-27 09:44 339 0 gusting 1 9.4
2015-Mar-27 09:39 339 1 gusting 1 9.4
2015-Mar-27 09:14 340 9.4
2015-Mar-27 09:09 340 9.4
2015-Mar-27 09:04 340 9.4
2015-Mar-27 08:59 340 10.0
2015-Mar-27 08:49 340 10.0
2015-Mar-27 08:39 340 10.0
2015-Mar-27 08:14 340 10.0
2015-Mar-27 08:09 340 10.0
2015-Mar-27 07:59 340 10.0
2015-Mar-27 07:49 340 10.0
2015-Mar-27 07:39 340 10.0
2015-Mar-27 07:29 340 10.0
2015-Mar-27 07:24 340 10.0
2015-Mar-27 07:19 340 10.0
2015-Mar-27 07:09 340 0 gusting 0 10.6
2015-Mar-27 06:59 340 10.6
2015-Mar-27 06:44 340 10.6
2015-Mar-27 06:39 340 10.6
2015-Mar-27 06:34 340 10.6
2015-Mar-27 06:19 340 10.6
2015-Mar-27 06:09 340 11.1
2015-Mar-27 05:54 334 3 gusting 5 11.1
2015-Mar-27 05:44 333 0 gusting 1 11.1
2015-Mar-27 05:24 340 11.7
2015-Mar-27 05:19 340 0 gusting 3 11.7
2015-Mar-27 05:04 360 1 gusting 2 12.2
2015-Mar-27 04:59 360 1 gusting 3 12.2
2015-Mar-27 04:49 340 3 gusting 6 12.2
2015-Mar-27 04:44 013 0 gusting 6 12.2
2015-Mar-27 04:39 360 6 gusting 7 12.2
2015-Mar-27 04:34 360 6 gusting 7 11.7
2015-Mar-27 04:19 321 0 gusting 6 12.2
2015-Mar-27 04:14 330 1 gusting 6 12.2
2015-Mar-27 04:09 331 6 gusting 6 12.2
2015-Mar-27 04:04 327 3 gusting 6 12.2
2015-Mar-27 03:59 334 6 gusting 8 12.2
2015-Mar-27 03:49 355 3 gusting 10 12.2
2015-Mar-27 03:44 324 8 gusting 10 12.2
2015-Mar-27 03:19 013 7 gusting 10 12.2
2015-Mar-27 03:14 027 7 gusting 7 12.2
2015-Mar-27 02:49 038 5 gusting 6 11.7
2015-Mar-27 02:44 343 5 gusting 6 11.7
2015-Mar-27 02:39 306 0 gusting 3 11.7
2015-Mar-27 02:34 303 11.7
2015-Mar-27 02:29 310 11.7
2015-Mar-27 02:24 346 0 gusting 9 11.7
2015-Mar-27 02:09 360 8 gusting 11 11.7
2015-Mar-27 01:59 345 6 gusting 6 11.7
2015-Mar-27 01:54 314 0 gusting 5 11.7
2015-Mar-27 01:49 322 3 gusting 5 11.7
2015-Mar-27 01:39 355 1 gusting 3 11.7
2015-Mar-27 01:29 334 11.7
2015-Mar-27 01:24 181 0 gusting 3 11.7
2015-Mar-27 01:15 330 0 gusting 6 11.7
2015-Mar-27 01:09 330 5 gusting 6 11.7
2015-Mar-27 01:04 355 11.7
2015-Mar-27 00:49 312 11.7
2015-Mar-27 00:39 331 6 gusting 9 11.7
2015-Mar-27 00:34 332 6 gusting 8 11.7
2015-Mar-27 00:24 336 6 gusting 8 11.7
2015-Mar-27 00:19 346 3 gusting 8 11.7
2015-Mar-27 00:04 009 6 gusting 12 11.7
2015-Mar-26 23:59 347 8 gusting 12 11.7
2015-Mar-26 23:54 355 8 gusting 13 11.7
2015-Mar-26 23:44 360 12 gusting 15 11.7
2015-Mar-26 23:39 360 11 gusting 15 11.7
2015-Mar-26 23:29 360 11 gusting 17 11.7
2015-Mar-26 23:19 355 9 gusting 15 12.2
2015-Mar-26 23:04 295 5 gusting 10 12.8
2015-Mar-26 22:54 319 1 gusting 12 13.3
2015-Mar-26 22:44 328 14.4
2015-Mar-26 22:39 327 14.4
2015-Mar-26 22:29 330 0 gusting 5 15.0
2015-Mar-26 22:24 330 15.0
2015-Mar-26 22:19 330 0 gusting 2 14.4
2015-Mar-26 21:59 330 2 gusting 6 14.4
2015-Mar-26 21:54 355 0 gusting 5 14.4
2015-Mar-26 21:49 355 2 gusting 5 14.4
2015-Mar-26 21:29 325 1 gusting 5 15.0
2015-Mar-26 21:19 355 1 gusting 3 15.0
2015-Mar-26 20:44 013 1 gusting 3 16.1
2015-Mar-26 20:34 071 16.1
2015-Mar-26 20:24 024 1 gusting 5 17.2
2015-Mar-26 20:19 337 1 gusting 6 17.2
2015-Mar-26 20:14 327 2 gusting 6 17.8
2015-Mar-26 20:09 336 5 gusting 6 18.3
2015-Mar-26 19:59 232 0 gusting 6 18.3
2015-Mar-26 19:54 089 0 gusting 6 18.3
2015-Mar-26 19:39 140 1 gusting 6 18.9
2015-Mar-26 19:34 056 1 gusting 7 18.3
2015-Mar-26 19:14 130 2 gusting 10 18.9
2015-Mar-26 19:09 132 7 gusting 8 18.3
2015-Mar-26 19:04 048 3 gusting 7 18.3
2015-Mar-26 18:59 140 0 gusting 6 17.8
2015-Mar-26 18:54 062 2 gusting 6 17.8
2015-Mar-26 18:49 145 2 gusting 7 17.2
2015-Mar-26 18:44 188 1 gusting 7 16.7
2015-Mar-26 18:29 277 15.6
2015-Mar-26 18:24 019 0 gusting 2 15.0
2015-Mar-26 18:14 021 1 gusting 3 15.6
2015-Mar-26 18:09 032 16.1
2015-Mar-26 17:49 052 0 gusting 5 16.1
2015-Mar-26 17:44 069 3 gusting 5 16.1
2015-Mar-26 17:19 028 1 gusting 5 15.6
2015-Mar-26 17:14 149 0 gusting 6 15.0
2015-Mar-26 17:09 130 3 gusting 6 15.0
2015-Mar-26 17:04 182 1 gusting 2 14.4
2015-Mar-26 16:59 111 13.9
2015-Mar-26 16:54 111 0 gusting 2 13.9
2015-Mar-26 16:44 118 13.3
2015-Mar-26 16:29 187 13.3
2015-Mar-26 16:24 196 6 gusting 6 13.3
2015-Mar-26 16:14 202 0 gusting 5 13.3
2015-Mar-26 16:04 175 2 gusting 3 12.8
2015-Mar-26 15:59 135 1 gusting 3 12.8
2015-Mar-26 15:54 144 3 gusting 7 12.8
2015-Mar-26 15:49 176 3 gusting 7 12.8
2015-Mar-26 15:39 249 12.8
2015-Mar-26 15:34 200 12.8
2015-Mar-26 15:29 205 2 gusting 3 12.8
2015-Mar-26 15:19 120 12.2
2015-Mar-26 15:14 140 2 gusting 5 12.2
2015-Mar-26 15:04 144 2 gusting 5 11.7
2015-Mar-26 14:44 135 0 gusting 6 11.7
2015-Mar-26 14:39 159 2 gusting 3 11.7
2015-Mar-26 14:34 187 0 gusting 6 11.7
2015-Mar-26 14:09 121 12.2
2015-Mar-26 13:59 161 1 gusting 6 12.2
2015-Mar-26 13:29 153 12.2
2015-Mar-26 13:24 148 12.2
2015-Mar-26 13:19 202 12.8
2015-Mar-26 13:09 185 12.8
2015-Mar-26 12:59 176 12.8
2015-Mar-26 12:49 149 3 gusting 6 12.8
2015-Mar-26 12:24 165 12.8
2015-Mar-26 12:09 171 12.8
2015-Mar-26 11:24 130 12.8
2015-Mar-26 11:19 165 12.8
2015-Mar-26 11:14 085 12.8
2015-Mar-26 11:09 126 12.8
2015-Mar-26 11:04 128 1 gusting 2 12.8
2015-Mar-26 10:55 157 1 gusting 3 13.3
2015-Mar-26 10:49 157 13.3
2015-Mar-26 10:39 161 13.3
2015-Mar-26 10:30 167 13.3
2015-Mar-26 10:19 185 0 gusting 6 13.3
2015-Mar-26 10:09 139 13.3
2015-Mar-26 09:49 169 6 gusting 8 13.3
2015-Mar-26 09:44 165 2 gusting 8 13.3
2015-Mar-26 09:39 160 2 gusting 7 13.3
2015-Mar-26 09:34 113 1 gusting 7 13.3
2015-Mar-26 09:29 197 3 gusting 6 13.3